Location: Bacea
(45.9500°N, 22.6667°E)
Time: 03:33:32
(UTC+00:00)

Cosmos 2263 Rocket - Pass Details

Date: 04 June 2022
Orbit: 825 x 847 km, 71.0° (Epoch: 04 July)

Event Time Altitude Azimuth Distance (km) Brightness Sun altitude
Rises 19:08:40 0° 323° (NW) 3,375 7.6 -8.0°
Reaches altitude 10° 19:11:29 10° 311° (NW) 2,435 6.3 -8.4°
Maximum altitude 19:15:54 25° 258° (WSW) 1,619 4.1 -8.9°
Drops below altitude 10° 19:20:19 10° 205° (SSW) 2,419 4.4 -9.5°
Sets 19:23:07 0° 192° (SSW) 3,348 5.0 -9.8°
